This is the latest recevied weather packets stored in our database for station/object KD8UYA. If no packets are shown the sender has not sent any weather packets the latest 10 day(s).
| Time | Temp. | Humidity | Pressure | Rain* | Wind** | Luminosity | Snow |
|---|---|---|---|---|---|---|---|
| 1777627831 | 6.11° C | 85% | 1011.2 hPa | 0 mm | - | - | - |
| 1777626932 | 6.67° C | 85% | 1011.5 hPa | 0 mm | - | - | - |
| 1777626030 | 6.67° C | 85% | 1011.4 hPa | 0 mm | - | - | - |
| 1777625128 | 6.67° C | 85% | 1011.7 hPa | 0 mm | - | - | - |
| 1777624228 | 6.67° C | 85% | 1011.9 hPa | 0 mm | - | - | - |
| 1777623327 | 6.67° C | 83% | 1011.4 hPa | 0 mm | - | - | - |
| 1777622426 | 6.67° C | 84% | 1011.4 hPa | 0 mm | - | - | - |
| 1777621526 | 6.67° C | 83% | 1011.3 hPa | 0 mm | - | - | - |
| 1777620622 | 6.67° C | 83% | 1011.6 hPa | 0 mm | - | - | - |
| 1777619720 | 6.11° C | 85% | 1011.8 hPa | 0 mm | - | - | - |
| 1777618820 | 6.11° C | 86% | 1011.8 hPa | 0 mm | - | - | - |
| 1777617918 | 6.11° C | 87% | 1011.9 hPa | 0 mm | - | - | - |
| 1777617018 | 6.11° C | 84% | 1012.1 hPa | 0 mm | - | - | - |
| 1777616113 | 6.11° C | 85% | 1012.3 hPa | 0 mm | - | - | - |
| 1777615217 | 6.11° C | 85% | 1012.5 hPa | 0 mm | - | - | - |
| 1777614310 | 6.11° C | 83% | 1012.4 hPa | 0 mm | - | - | - |
| 1777613416 | 5.56° C | 85% | 1012.6 hPa | 0 mm | - | - | - |
| 1777612505 | 5.56° C | 88% | 1012.9 hPa | 0 mm | - | - | - |
| 1777611605 | 5° C | 86% | 1013.1 hPa | 0 mm | - | - | - |
| 1777610703 | 5.56° C | 85% | 1013.1 hPa | 0 mm | - | - | - |
| 1777609862 | 5.56° C | 86% | 1013.1 hPa | 0 mm | - | - | - |
| 1777608965 | 5.56° C | 86% | 1013.1 hPa | 0 mm | - | - | - |
| 1777608065 | 5.56° C | 86% | 1013 hPa | 0 mm | - | - | - |
| 1777607156 | 5.56° C | 87% | 1013.4 hPa | 0 mm | - | - | - |
| 1777606255 | 5.56° C | 88% | 1013.4 hPa | 0 mm | - | - | - |
* Rain latest hour (hover to see other rain measurements)
** Current wind speed in m/s (hover to see current wind gust speed)